Home   Weather   Caledon   Past weeks

Flag for Canada Past Weather in Caledon, Ontario, Canada — Yesterday and Last 2 Weeks

45 °F

Partly sunny.

Feels Like: 38 °F
Forecast: N/A
Wind: 14 mph from Northwest

Location: Borden

Current Time: Oct 22, 2016 at 5:34:44 PM

Latest Report: Oct 22, 2016 at 5:00 PM

Visibility: 9 mi

Pressure: 29.81 "Hg

Humidity: 61%

Dew Point: 32 °F

Location of CaledonLocation

Past Weather in Caledon — Graph


Caledon Temperature Yesterday

Maximum temperature yesterday: 50 °F (at 12:00 AM)
Minimum temperature yesterday: 41 °F (at 11:00 PM)
Average temperature yesterday: 47 °F

High & Low Weather Summary for the Past Weeks

High77 °F (Oct 18, 3:00 PM)100% (Oct 8, 6:00 AM)30.50 "Hg (Oct 8, 6:00 AM)
Low23 °F (Oct 10, 6:00 AM)33% (Oct 10, 4:00 PM)29.51 "Hg (Oct 18, 11:00 AM)
Average52 °F84%30.06 "Hg
* Reported Oct 7 4:00 PM — Oct 22 4:00 PM, Caledon, Weather by CustomWeather, © 2016

Note: Actual official high and low records may vary slightly from our data, if they occured in-between our weather recording intervals... More about our weather records


Caledon Weather History for the Previous 24 Hours

Scroll right to see more
Time TempWeatherWind HumidityBarometerVisibility
4:00 PM
Sat, Oct 22
45 °FOvercast.15 mph61%29.80 "Hg9 mi
3:00 PM43 °FOvercast.16 mph71%29.81 "Hg9 mi
2:00 PM43 °FOvercast.13 mph71%29.81 "Hg9 mi
1:00 PM41 °FLight rain. Partly sunny.18 mph87%29.82 "Hg9 mi
12:00 PM43 °FPartly sunny.13 mph76%29.82 "Hg9 mi
11:00 AM41 °FLight rain. Overcast.13 mph76%29.82 "Hg9 mi
10:55 AM41 °FLight rain. Overcast.20 mph76%29.80 "Hg9 mi
10:00 AM39 °FLight rain. Partly sunny.13 mph87%29.83 "Hg9 mi
9:00 AM39 °FPartly sunny.12 mph81%29.84 "Hg9 mi
8:01 AM39 °FLight rain. Overcast.14 mph75%29.82 "Hg9 mi
7:00 AM39 °FOvercast.7 mph70%29.86 "Hg9 mi
6:00 AM39 °FOvercast.8 mph70%29.87 "Hg9 mi
5:00 AM39 °FOvercast.12 mph70%29.86 "Hg9 mi
4:00 AM39 °FOvercast.9 mph75%29.88 "Hg9 mi
3:00 AM39 °FOvercast.9 mph75%29.90 "Hg9 mi
2:00 AM41 °FOvercast.9 mph70%29.90 "Hg9 mi
1:00 AM41 °FOvercast.9 mph70%29.91 "Hg9 mi
12:00 AM41 °FOvercast.9 mph70%29.92 "Hg9 mi
11:00 PM
Fri, Oct 21
41 °FOvercast.12 mph76%29.93 "Hg9 mi
10:00 PM43 °FOvercast.9 mph71%29.94 "Hg9 mi
9:00 PM43 °FOvercast.10 mph76%29.95 "Hg9 mi
8:00 PM45 °FOvercast.10 mph71%29.95 "Hg9 mi
7:00 PM45 °FOvercast.8 mph76%29.95 "Hg9 mi
6:00 PM45 °FOvercast.8 mph76%29.95 "Hg9 mi
5:00 PM46 °FOvercast.15 mph71%29.95 "Hg9 mi
Weather by CustomWeather, © 2016

See weather overviewHow to use our weather pages